ABS-2A (MONGOLSAT-1)

Last updated on Mon Sep 07 2026 00:02:59 GMT+0000 (Coordinated Universal Time)

1 41588U 16038A 26249.39258133 -.00000099 00000+0 00000+0 0 9998 2 41588 0.0157 114.3135 0001509 357.1308 90.0825 1.00269073 37520
UTC large
Height (km)
Speed (km/s)
/
Latitude / Longitude
Inclination (degrees)
Orbital Period (minutes)
Azimuth
Elevation
Range (km)
Doppler Factor

Next 0 passes for location: London (51.5072 / 0.1276)

No passes found over London.
ABS-2A (MONGOLSAT-1)